When you browse on this site, cookies collect data to enhance your experience and personalize the content and advertising you see.
Visit our Privacy Policy to learn more. By continuing to use the site, you agree to this use of cookies and data.
  • In United Kingdom
  • List of Countries
  • For 7 days
  • Water Temperature
  • Weather Map
  • Weather Widgets
  • user-avatar
    Login

    Hourly Weather Hendek

    Today, 16 November, Saturday

    Time Temperature Precipitation Wind Pressure Humidity
    00:00 +14°C° 0 mm 0 mps 750 mmHg 72%
    01:00 +14°C° 0 mm 0 mps 750 mmHg 72%
    02:00 +14°C° 0 mm 0 mps 750 mmHg 73%
    03:00 +13°C° 0 mm 0 mps 750 mmHg 73%
    04:00 +13°C° 0 mm 0 mps 750 mmHg 74%
    05:00 +13°C° 0 mm 0 mps 750 mmHg 75%
    06:00 +14°C° 0 mm 0 mps 750 mmHg 73%
    07:00 +14°C° 0 mm 0 mps 750 mmHg 71%
    08:00 +15°C° 0 mm 0 mps 750 mmHg 68%
    09:00 +17°C° 0 mm 0 mps 750 mmHg 62%
    10:00 +20°C° 0 mm 1 mps 751 mmHg 56%
    11:00 +22°C° 0 mm 1 mps 751 mmHg 50%
    12:00 +22°C° 0 mm 1 mps 750 mmHg 50%
    13:00 +23°C° 0 mm 2 mps 750 mmHg 50%
    14:00 +23°C° 0 mm 2 mps 750 mmHg 50%
    15:00 +20°C° 0 mm 2 mps 750 mmHg 59%
    16:00 +19°C° 0 mm 1 mps 750 mmHg 69%
    17:00 +16°C° 0 mm 1 mps 750 mmHg 78%
    18:00 +16°C° 0 mm 1 mps 750 mmHg 79%
    19:00 +16°C° 0 mm 1 mps 750 mmHg 79%
    20:00 +15°C° 0 mm 1 mps 750 mmHg 79%
    21:00 +15°C° 0 mm 1 mps 749 mmHg 78%
    22:00 +15°C° 0 mm 1 mps 749 mmHg 78%
    23:00 +15°C° 0 mm 1 mps 749 mmHg 77%

    Tomorrow, 17 November, Sunday

    Time Temperature Precipitation Wind Pressure Humidity
    00:00 +15°C° 0 mm 1 mps 749 mmHg 76%
    01:00 +15°C° 0 mm 1 mps 749 mmHg 76%
    02:00 +15°C° 0 mm 1 mps 749 mmHg 76%
    03:00 +15°C° 0 mm 1 mps 749 mmHg 75%
    04:00 +14°C° 0 mm 1 mps 749 mmHg 74%
    05:00 +14°C° 0 mm 1 mps 749 mmHg 73%
    06:00 +15°C° 0 mm 1 mps 749 mmHg 69%
    07:00 +16°C° 0 mm 1 mps 749 mmHg 66%
    08:00 +16°C° 0 mm 1 mps 749 mmHg 62%
    09:00 +19°C° 0 mm 1 mps 749 mmHg 54%
    10:00 +22°C° 0 mm 1 mps 749 mmHg 46%
    11:00 +24°C° 0 mm 1 mps 749 mmHg 37%
    12:00 +24°C° 0 mm 1 mps 749 mmHg 36%
    13:00 +25°C° 0 mm 1 mps 748 mmHg 35%
    14:00 +25°C° 0 mm 1 mps 748 mmHg 33%
    15:00 +23°C° 0 mm 1 mps 748 mmHg 41%
    16:00 +21°C° 0 mm 1 mps 748 mmHg 48%
    17:00 +19°C° 0 mm 1 mps 748 mmHg 55%
    18:00 +18°C° 0 mm 1 mps 748 mmHg 54%
    19:00 +18°C° 0 mm 1 mps 748 mmHg 54%
    20:00 +16°C° 0 mm 1 mps 748 mmHg 53%
    21:00 +16°C° 0 mm 1 mps 748 mmHg 52%
    22:00 +16°C° 0 mm 1 mps 748 mmHg 51%
    23:00 +16°C° 0 mm 1 mps 748 mmHg 50%

    Day after tomorrow, 18 November, Monday

    Time Temperature Precipitation Wind Pressure Humidity
    00:00 +16°C° 0 mm 1 mps 748 mmHg 49%
    01:00 +15°C° 0 mm 1 mps 749 mmHg 47%
    02:00 +15°C° 0 mm 1 mps 749 mmHg 46%
    03:00 +15°C° 0 mm 1 mps 749 mmHg 46%
    04:00 +15°C° 0 mm 1 mps 749 mmHg 46%
    05:00 +15°C° 0 mm 1 mps 749 mmHg 46%
    06:00 +15°C° 0 mm 1 mps 749 mmHg 46%
    07:00 +16°C° 0 mm 1 mps 749 mmHg 46%
    08:00 +16°C° 0 mm 1 mps 749 mmHg 45%
    09:00 +20°C° 0 mm 1 mps 749 mmHg 40%
    10:00 +22°C° 0 mm 1 mps 749 mmHg 36%
    11:00 +22°C° 0 mm 0 mps 749 mmHg 31%
    12:00 +25°C° 0 mm 1 mps 749 mmHg 30%
    13:00 +25°C° 0 mm 1 mps 749 mmHg 29%
    14:00 +25°C° 0 mm 1 mps 749 mmHg 28%
    15:00 +23°C° 0 mm 1 mps 749 mmHg 33%
    16:00 +21°C° 0 mm 1 mps 749 mmHg 38%
    17:00 +19°C° 0 mm 1 mps 749 mmHg 43%
    18:00 +18°C° 0 mm 1 mps 749 mmHg 44%
    19:00 +18°C° 0 mm 1 mps 749 mmHg 45%
    20:00 +18°C° 0 mm 1 mps 750 mmHg 46%
    21:00 +16°C° 0 mm 1 mps 750 mmHg 46%
    22:00 +16°C° 0 mm 1 mps 750 mmHg 47%
    23:00 +16°C° 0 mm 1 mps 750 mmHg 47%

    19 November, Tuesday

    Time Temperature Precipitation Wind Pressure Humidity
    00:00 +16°C° 0 mm 1 mps 750 mmHg 48%
    01:00 +15°C° 0 mm 1 mps 750 mmHg 48%
    02:00 +15°C° 0 mm 1 mps 750 mmHg 48%
    03:00 +15°C° 0 mm 1 mps 750 mmHg 49%
    04:00 +15°C° 0 mm 1 mps 750 mmHg 49%
    05:00 +15°C° 0 mm 1 mps 750 mmHg 49%
    06:00 +15°C° 0 mm 1 mps 750 mmHg 48%
    07:00 +16°C° 0 mm 1 mps 750 mmHg 47%
    08:00 +16°C° 0 mm 1 mps 751 mmHg 46%
    09:00 +19°C° 0 mm 1 mps 751 mmHg 41%
    10:00 +21°C° 0 mm 1 mps 751 mmHg 37%
    11:00 +21°C° 0 mm 0 mps 751 mmHg 32%
    12:00 +23°C° 0 mm 1 mps 750 mmHg 31%
    13:00 +23°C° 0 mm 1 mps 750 mmHg 31%
    14:00 +24°C° 0 mm 1 mps 749 mmHg 30%
    15:00 +22°C° 0 mm 1 mps 749 mmHg 35%
    16:00 +20°C° 0 mm 1 mps 749 mmHg 41%
    17:00 +18°C° 0 mm 1 mps 749 mmHg 46%
    18:00 +16°C° 0 mm 1 mps 749 mmHg 46%
    19:00 +16°C° 0 mm 1 mps 749 mmHg 47%
    20:00 +15°C° 0 mm 1 mps 749 mmHg 48%
    21:00 +15°C° 0 mm 1 mps 749 mmHg 47%
    22:00 +15°C° 0 mm 1 mps 749 mmHg 47%
    23:00 +14°C° 0 mm 1 mps 748 mmHg 46%

    20 November, Wednesday

    Time Temperature Precipitation Wind Pressure Humidity
    00:00 +14°C° 0 mm 1 mps 748 mmHg 46%
    01:00 +14°C° 0 mm 1 mps 748 mmHg 45%
    02:00 +14°C° 0 mm 1 mps 748 mmHg 45%
    03:00 +14°C° 0 mm 2 mps 748 mmHg 45%
    04:00 +13°C° 0 mm 2 mps 748 mmHg 45%
    05:00 +13°C° 0 mm 2 mps 748 mmHg 46%
    06:00 +14°C° 0 mm 2 mps 748 mmHg 44%
    07:00 +14°C° 0 mm 2 mps 748 mmHg 43%
    08:00 +14°C° 0 mm 2 mps 748 mmHg 42%
    09:00 +18°C° 0 mm 1 mps 748 mmHg 37%
    10:00 +20°C° 0 mm 1 mps 748 mmHg 32%
    11:00 +23°C° 0 mm 1 mps 748 mmHg 26%
    12:00 +23°C° 0 mm 1 mps 748 mmHg 26%
    13:00 +23°C° 0 mm 1 mps 748 mmHg 26%
    14:00 +23°C° 0 mm 1 mps 747 mmHg 26%
    15:00 +22°C° 0 mm 1 mps 747 mmHg 29%
    16:00 +20°C° 0 mm 1 mps 747 mmHg 33%
    17:00 +18°C° 0 mm 1 mps 747 mmHg 36%
    18:00 +18°C° 0 mm 1 mps 747 mmHg 36%
    19:00 +18°C° 0 mm 1 mps 747 mmHg 36%
    20:00 +18°C° 0 mm 1 mps 747 mmHg 36%
    21:00 +18°C° 0 mm 1 mps 747 mmHg 36%
    22:00 +18°C° 0 mm 1 mps 747 mmHg 36%
    23:00 +18°C° 0 mm 1 mps 747 mmHg 36%

    21 November, Thursday

    Time Temperature Precipitation Wind Pressure Humidity
    00:00 +18°C° 0 mm 1 mps 747 mmHg 38%
    01:00 +18°C° 0 mm 1 mps 747 mmHg 40%
    02:00 +18°C° 0 mm 1 mps 747 mmHg 43%
    03:00 +16°C° 0 mm 1 mps 747 mmHg 47%
    04:00 +16°C° 0 mm 1 mps 747 mmHg 51%
    05:00 +15°C° 0 mm 1 mps 747 mmHg 55%
    06:00 +15°C° 0 mm 1 mps 747 mmHg 57%
    07:00 +15°C° 0 mm 1 mps 747 mmHg 58%
    08:00 +15°C° 0 mm 1 mps 748 mmHg 59%
    09:00 +18°C° 0 mm 1 mps 748 mmHg 54%
    10:00 +20°C° 0 mm 1 mps 748 mmHg 49%
    11:00 +21°C° 0 mm 1 mps 748 mmHg 44%
    12:00 +22°C° 0 mm 1 mps 748 mmHg 44%
    13:00 +21°C° 0 mm 2 mps 747 mmHg 43%
    14:00 +21°C° 0 mm 2 mps 747 mmHg 43%
    15:00 +19°C° 0 mm 2 mps 747 mmHg 52%
    16:00 +18°C° 0 mm 1 mps 747 mmHg 61%
    17:00 +15°C° 0 mm 1 mps 747 mmHg 69%
    18:00 +15°C° 0 mm 1 mps 748 mmHg 72%
    19:00 +13°C° 0 mm 0 mps 748 mmHg 75%
    20:00 +13°C° 0 mm 0 mps 748 mmHg 78%
    21:00 +12°C° 0 mm 0 mps 748 mmHg 79%
    22:00 +12°C° 0 mm 0 mps 748 mmHg 79%
    23:00 +12°C° 0 mm 0 mps 748 mmHg 79%
    Show more